Location: Mesa Vista Observatory
(35.5777°N, 105.6987°W)
Time: 06:51:30
(UTC-06:00)

Vanguard 2 Rocket - Visible Passes

Search period start: 26 September 2020 00:00
Search period end: 06 October 2020 00:00
Orbit: 554 x 3326 km, 32.9° (Epoch: 25 September)

Date Brightness Start Highest point End Pass type
(mag) Time Alt. Az. Time Alt. Az. Time Alt. Az.
26 Sep 10.6 01:10:10 21° ESE 01:10:10 21° ESE 01:17:23 10° E visible
26 Sep 9.5 03:15:57 56° S 03:18:26 59° SSE 03:37:49 10° E visible
26 Sep 9.6 05:21:44 24° WSW 05:36:56 81° S 05:54:44 10° E visible
27 Sep 9.8 02:19:33 46° SE 02:19:33 46° SE 02:35:35 10° E visible
27 Sep 9.5 04:25:20 43° WSW 04:34:24 76° SSE 04:53:37 10° E visible
28 Sep 10.3 01:23:08 28° ESE 01:23:08 28° ESE 01:32:38 10° E visible
28 Sep 9.3 03:28:55 63° SSW 03:32:04 69° SSE 03:52:00 10° E visible
28 Sep 9.6 05:34:42 20° W 05:51:01 83° S 06:08:54 10° E visible
29 Sep 10.8 00:26:43 13° E 00:26:43 13° E 00:28:41 10° E visible
29 Sep 9.6 02:32:30 57° SE 02:32:30 57° SE 02:49:52 10° E visible
29 Sep 9.5 04:38:17 39° WSW 04:48:24 81° S 05:07:46 10° E visible
30 Sep 10.1 01:36:04 35° ESE 01:36:04 35° ESE 01:47:12 10° E visible
30 Sep 9.3 03:41:51 64° SW 03:45:54 76° SSE 04:06:08 10° E visible
30 Sep 9.7 05:47:38 17° W 06:05:07 81° S 06:23:00 10° ESE visible
01 Oct 10.6 00:39:38 18° E 00:39:38 18° E 00:43:55 10° E visible
01 Oct 9.4 02:45:25 67° SE 02:45:25 67° SE 03:04:02 10° E visible
01 Oct 9.5 04:51:11 35° W 05:02:29 83° S 05:21:55 10° E visible
02 Oct 9.9 01:48:59 43° E 01:48:59 43° E 02:01:28 10° E visible
02 Oct 9.3 03:54:46 60° WSW 03:59:54 81° S 04:20:17 10° E visible
02 Oct 9.7 06:00:33 14° W 06:19:06 76° SSW 06:37:00 10° ESE visible
03 Oct 10.5 00:52:34 23° E 00:52:34 23° E 00:58:29 10° E visible
03 Oct 9.2 02:58:22 76° SSE 02:58:22 76° SSE 03:18:09 10° E visible
03 Oct 9.6 05:04:09 31° W 05:16:34 81° S 05:36:00 10° ESE visible
04 Oct 9.7 02:01:58 49° E 02:01:58 49° E 02:15:37 10° E visible
04 Oct 9.3 04:07:45 55° WSW 04:13:59 82° S 04:34:25 10° E visible
04 Oct 9.7 06:13:32 10° W 06:32:56 68° SSW 06:50:44 10° ESE visible
05 Oct 10.3 01:05:36 27° E 01:05:36 27° E 01:12:44 10° E visible
05 Oct 9.1 03:11:24 81° S 03:11:37 81° S 03:32:17 10° E visible
05 Oct 9.6 05:17:11 26° W 05:30:34 75° SSW 05:49:55 10° ESE visible
